Voltar ao catálogo

STARLINK-4251

AtivoComunicaçõesSSO
NORAD 53083·PAYLOAD·🇺🇸 United States

Lançado Jul 11, 2022 de Vandenberg Space Force Base

Loading…

Próximas Passagens (próximas 24 horas)

TLE

AtualizadoSource: CelesTrak SupGP

Época: Sep 14, 2026, 20:49 UTC

1 53083C 22077AS  26257.86784722  .00087795  00000+0  27253-2 0  2576
2 53083  97.2856  73.5965 0001670  86.5362  97.2009 15.33394521    11

Acompanhe STARLINK-4251 em tempo real com AllMySat

Download on the App Store